Regional Weather Roundup
Issued by NWS

Home | Current Version | Previous Version | Graphics & Text | Print | Product List | Glossary On
Versions: 1 2 3 4 5 6 7 8 9 10 11 12 13 14 15 16 17 18 19 20 21 22 23 24 25 26 27 28 29 30 31 32 33 34 35 36 37 38 39 40 41 42 43 44 45 46 47 48
651
ASUS45 KTFX 070510
RWRMT
MONTANA REGIONAL WEATHER ROUNDUP
NATIONAL WEATHER SERVICE GREAT FALLS MT
1000 PM MST SAT FEB 06 2016

NOTE: "FAIR" INDICATES FEW OR NO CLOUDS BELOW 12000 FEET WITH NO
SIGNIFICANT WEATHER AND/OR OBSTRUCTIONS TO VISIBILITY.

MTZ001>007-043-070600-
WEST OF THE DIVIDE

CITY           SKY/WX    TMP DP  RH WIND       PRES   REMARKS
KALISPELL      PTCLDY    26  19  74 E3        30.34R
MISSOULA       CLOUDY    36  24  62 N7        30.38R WCI  30
BUTTE          CLOUDY    26  11  52 NW5       30.25R
MULLAN PASS    CLEAR     20  18  92 NW7       30.28R WCI  11
ANACONDA         N/A     34  12  40 NW7       30.28R WCI  28
DEER LODGE       N/A     28  19  69 CALM      30.30R
HAMILTON         N/A     37  16  41 CALM      30.35R
LIBBY            N/A     28  21  74 CALM      30.36R
PLAINS           N/A     39  23  53 SW5       30.35R
$$

MTZ008-052>055-070600-
SOUTHWEST MONTANA

CITY           SKY/WX    TMP DP  RH WIND       PRES   REMARKS
BOZEMAN        CLOUDY    30  18  60 N10       30.26R WCI  21
DILLON         CLOUDY    36  16  44 SW9G20    30.27R WCI  29
ENNIS          CLOUDY    37  14  38 SW5       30.31R
TWIN BRIDGES     N/A     38  14  37 NW10      30.22R WCI  31
$$

MTZ009-010-012-014-046-048-049-054-070600-
EAST SLOPES AND CENTRAL MONTANA

CITY           SKY/WX    TMP DP  RH WIND       PRES   REMARKS
CUT BANK       CLEAR     29  16  58 W23       30.17R WCI  15
GREAT FALLS    CLEAR     30  17  58 W16       30.20R WCI  19
MALMSTROM AFB  CLEAR     33  16  49 W14G23    30.21R WCI  23
HELENA         CLOUDY    37  20  50 NW20      30.26R WCI  27
CHOTEAU          N/A     30  16  55 W14G20    30.22R WCI  20
CONRAD           N/A     34  15  46 SW21      30.19R WCI  22
$$

MTZ011-013-016-021-045-047-050-051-070600-
NORTH CENTRAL MONTANA

CITY           SKY/WX    TMP DP  RH WIND       PRES   REMARKS
HAVRE          PTCLDY    34  18  52 W23       30.09R WCI  22
LEWISTOWN      CLOUDY    31  19  61 W16       30.13R WCI  20
N BAR RANCH    MOCLDY    32  16  51 NW20G28   30.13R WCI  20
CHINOOK          N/A     36  16  44 W17G25    30.06R WCI  25
$$

MTZ017>020-022>027-061-062-070600-
NORTHEAST MONTANA

CITY           SKY/WX    TMP DP  RH WIND       PRES   REMARKS
GLASGOW        MOCLDY    31  30  96 W10       29.95F WCI  22
JORDAN           N/A     35  27  72 W15G28    30.02S WCI  25
SIDNEY         PTCLDY    37  25  60 W33G40    29.85S WCI  24
WOLF POINT     CLOUDY    37  29  72 W23G36    29.91F WCI  26
PLENTYWOOD       N/A     34  25  69 W25G32    29.77F WCI  21
POPLAR           N/A     36  28  75 W21G29    29.89F WCI  24
$$

MTZ028>42-056>058-070600-
SOUTHCENTRAL AND SOUTHEAST MONTANA

CITY           SKY/WX    TMP DP  RH WIND       PRES   REMARKS
BAKER          CLOUDY    36  24  62 W21       29.98R WCI  25
BILLINGS       PTCLDY    39  14  36 NW30G44   30.13R WCI  27
LIVINGSTON     CLOUDY    33  18  53 VRB7      30.21R WCI  27
MILES CITY     CLEAR     34  27  75 W10       30.04S WCI  26
FORSYTH          N/A     37  18  44 W10       30.08S WCI  30
LAUREL           N/A     39  13  34 W28       30.10R WCI  27
ROUNDUP          N/A     38   9  30 W24       30.03R WCI  27
$$

REGIONAL REPORTS...DAKOTAS

CITY           SKY/WX    TMP DP  RH WIND       PRES   REMARKS
WILLISTON      CLEAR     36  26  67 W18       29.81R WCI  26
MINOT          LGT RAIN  40  23  50 W31G47    29.63R
DICKINSON      CLEAR     34  22  61 W24G32    29.82R WCI  21
BEACH          CLOUDY    36  25  64 W21G30    29.95S WCI  24
CROSBY           N/A     36  23  60 W25G32    29.75R WCI  23
TIOGA            N/A     32  25  74 W24G31    29.78S WCI  19
WATFORD CITY     N/A     36  25  64 W20G28    29.81S WCI  25
BISMARCK       CLEAR     43  25  49 W22G35    29.76R
GRAND FORKS    CLOUDY    40  31  70 W16       29.46F
FARGO          CLOUDY    39  31  72 SW18      29.56F WCI  30
BUFFALO SD       N/A     38  21  50 NW25G35   29.89S WCI  27
RAPID CITY     CLEAR     38  19  46 NW25G36   30.01R WCI  27
$$

REGIONAL REPORTS...WYOMING/IDAHO/WASHINGTON

CITY           SKY/WX    TMP DP  RH WIND       PRES   REMARKS
GILLETTE       CLOUDY    32  18  56 NW13      30.10R WCI  22
SHERIDAN       CLOUDY    36  20  52 NW13      30.12S WCI  27
BUFFALO WY     CLOUDY    33  18  53 NW9       30.11R WCI  25
CODY           CLOUDY    37  18  44 W10       30.13R WCI  30
YELLOWSTONE LA   N/A     21  15  78 VRB3      30.25S
IDAHO FALLS    CLOUDY    20  16  84 N3        30.40R
SALMON         MOCLDY    28  21  74 S5        30.35S
BOISE          CLEAR     33  30  88 CALM      30.46R
SPOKANE        CLEAR     31  28  89 E5        30.41R
$$

REGIONAL REPORTS...ALBERTA

CITY           SKY/WX    TMP DP  RH WIND       PRES   REMARKS
EDMONTON       CLEAR     28  18  64 W7        30.03R WCI  21
CALGARY        CLEAR     32   5  32 W17G26    30.11R WCI  21
LETHBRIDGE     CLEAR     32  12  43 W22G29    30.16R WCI  19
MEDICINE HAT   PTCLDY    37  10  32 W23G29    30.07R WCI  26
$$

REGIONAL REPORTS...SASKATCHEWAN

CITY           SKY/WX    TMP DP  RH WIND       PRES   REMARKS
SWIFT CURRENT  MOCLDY    34  19  55 NW35G46   29.80S WCI  19
REGINA         PTCLDY    36  23  60 W32G44    29.68S WCI  22
SASKATOON      CLOUDY    34  28  80 NW32G41   29.65R WCI  20
$$




USA.gov is the U.S. government's official web portal to all federal, state and local government web resources and services.